Location: Muenchen
(48.1800°N, 11.5800°E)
Time: 09:30:32
(UTC+01:00)

Iridium 36 - Visible Passes

Search period start: 18 December 2014 00:00
Search period end: 28 December 2014 00:00
Orbit: 773 x 775 km, 86.4° (Epoch: 17 December)

Date Brightness Start Highest point End Pass type
(mag) Time Alt. Az. Time Alt. Az. Time Alt. Az.
18 Dec 7.8 05:25:07 11° SSW 05:25:07 11° SSW 05:25:19 10° SSW visible
18 Dec 7.5 18:16:13 10° SW 18:20:39 28° WNW 18:25:06 10° NNW visible
19 Dec 6.6 17:40:53 10° SSW 17:45:52 48° W 17:50:55 10° N visible
20 Dec 5.6 17:06:03 10° S 17:11:15 84° W 17:16:29 10° N visible
20 Dec 8.4 18:50:31 10° W 18:52:46 13° WNW 18:55:02 10° NW visible
21 Dec 7.9 18:13:49 10° WSW 18:17:46 22° WNW 18:21:46 10° NNW visible
22 Dec 7.1 17:38:09 10° SW 17:42:56 37° WNW 17:47:45 10° N visible
23 Dec 6.0 17:03:05 10° SSW 17:08:14 65° W 17:13:25 10° N visible
24 Dec 8.2 18:11:36 10° WSW 18:14:56 17° WNW 18:18:16 10° NNW visible
25 Dec 7.5 17:35:33 10° SW 17:40:01 29° WNW 17:44:30 10° NNW visible
26 Dec 6.6 17:00:14 10° SSW 17:05:15 49° W 17:10:18 10° N visible
27 Dec 8.3 18:09:43 10° W 18:12:06 13° WNW 18:14:30 10° NW visible
